GW3945 Weather Reports


Display with metric or nautical units.
time (UTC)temp
F
wind
direction
speed
MPH
gust
MPH
rain 1hr
in
rain 24hr
in
rain mn
in
humidity
%
barometer
mb
20260902202346 93 224 0.0 0.0 0.00 0.00 0.00 51 1016.0
20260902201843 92 204 0.0 0.0 0.00 0.00 0.00 52 1016.1
20260902201342 92 204 0.0 0.0 0.00 0.00 0.00 52 1016.0
20260902200837 93 204 0.0 0.0 0.00 0.00 0.00 53 1016.1
20260902200332 92 204 0.0 0.0 0.00 0.00 0.00 51 1016.2
20260902195828 93 211 0.0 0.0 0.00 0.00 0.00 53 1016.3
20260902195327 93 220 0.0 0.0 0.00 0.00 0.00 57 1016.4
20260902194822 92 205 0.0 0.0 0.00 0.00 0.00 53 1016.3
20260902194317 92 204 0.0 0.0 0.00 0.00 0.00 53 1016.4
20260902193812 92 204 0.0 0.0 0.00 0.00 0.00 54 1016.5
20260902193308 93 210 0.0 0.0 0.00 0.00 0.00 55 1016.5
20260902192807 94 222 0.0 1.0 0.00 0.00 0.00 52 1016.4
20260902192307 93 213 0.0 0.0 0.00 0.00 0.00 52 1016.6
20260902191805 92 209 0.0 0.0 0.00 0.00 0.00 54 1016.8
20260902191301 92 208 0.0 0.0 0.00 0.00 0.00 54 1016.9
20260902190756 93 209 0.0 0.0 0.00 0.00 0.00 54 1017.0
20260902190255 92 219 0.0 0.0 0.00 0.00 0.00 53 1016.9
20260902185751 93 206 0.0 0.0 0.00 0.00 0.00 56 1017.0
20260902185246 93 214 0.0 0.0 0.00 0.00 0.00 54 1017.0
20260902184742 93 254 0.0 0.0 0.00 0.00 0.00 56 1017.1
20260902184243 92 211 0.0 0.0 0.00 0.00 0.00 56 1017.0
20260902183738 92 183 0.0 0.0 0.00 0.00 0.00 55 1016.9
20260902183234 92 215 0.0 0.0 0.00 0.00 0.00 56 1017.2
20260902182730 92 219 0.0 0.0 0.00 0.00 0.00 56 1016.9
20260902182227 93 226 0.0 0.0 0.00 0.00 0.00 56 1017.2
20260902181723 93 202 0.0 0.0 0.00 0.00 0.00 55 1017.2
20260902181222 93 228 0.0 0.0 0.00 0.00 0.00 56 1017.2
20260902180717 92 209 0.0 0.0 0.00 0.00 0.00 57 1017.2
20260902180212 92 209 0.0 0.0 0.00 0.00 0.00 58 1017.4
20260902175707 91 258 2.0 2.0 0.00 0.00 0.00 55 1017.3
20260902175203 91 194 0.0 0.0 0.00 0.00 0.00 57 1017.4
20260902174659 92 218 0.0 0.0 0.00 0.00 0.00 58 1017.7
20260902174155 91 220 0.0 0.0 0.00 0.00 0.00 57 1017.5
20260902173650 91 184 0.0 1.0 0.00 0.00 0.00 58 1017.7
20260902173145 91 194 0.0 0.0 0.00 0.00 0.00 58 1017.8
20260902172639 91 197 0.0 0.0 0.00 0.00 0.00 57 1017.7
20260902172138 91 212 0.0 0.0 0.00 0.00 0.00 60 1017.9
20260902171634 91 215 0.0 0.0 0.00 0.00 0.00 59 1017.9
20260902171130 91 205 0.0 0.0 0.00 0.00 0.00 61 1017.8
20260902170626 91 209 0.0 0.0 0.00 0.00 0.00 62 1018.0
20260902170121 91 211 0.0 0.0 0.00 0.00 0.00 62 1018.0
20260902165621 90 220 0.0 0.0 0.00 0.00 0.00 61 1018.2
20260902165115 90 216 0.0 0.0 0.00 0.00 0.00 61 1018.0
20260902164610 89 268 0.0 0.0 0.00 0.00 0.00 60 1018.4
20260902164109 89 245 1.0 1.0 0.00 0.00 0.00 60 1018.4
20260902163605 89 212 0.0 0.0 0.00 0.00 0.00 63 1018.4
20260902163103 89 191 0.0 0.0 0.00 0.00 0.00 64 1018.3
20260902162603 89 197 0.0 0.0 0.00 0.00 0.00 61 1018.5
20260902162057 89 212 0.0 0.0 0.00 0.00 0.00 62 1018.6
20260902161552 89 212 0.0 0.0 0.00 0.00 0.00 64 1018.7
20260902161049 89 214 0.0 0.0 0.00 0.00 0.00 64 1018.8
20260902160544 89 205 0.0 0.0 0.00 0.00 0.00 65 1018.8
20260902160039 89 209 0.0 0.0 0.00 0.00 0.00 62 1018.8
20260902155532 90 212 0.0 0.0 0.00 0.00 0.00 65 1018.8
20260902155031 89 216 0.0 0.0 0.00 0.00 0.00 63 1018.8
20260902154527 89 224 0.0 0.0 0.00 0.00 0.00 62 1018.8
20260902154021 89 220 0.0 0.0 0.00 0.00 0.00 64 1018.6
20260902153520 89 221 0.0 0.0 0.00 0.00 0.00 63 1018.8
20260902153016 89 249 0.0 0.0 0.00 0.00 0.00 60 1018.7
20260902152512 89 229 0.0 0.0 0.00 0.00 0.00 60 1018.9
20260902152007 89 213 0.0 0.0 0.00 0.00 0.00 59 1019.0
20260902151503 88 233 0.0 0.0 0.00 0.00 0.00 60 1018.7
20260902151002 88 236 0.0 0.0 0.00 0.00 0.00 58 1018.8
20260902150458 88 221 0.0 0.0 0.00 0.00 0.00 60 1018.9
20260902145957 88 224 0.0 0.0 0.00 0.00 0.00 60 1018.8
20260902145448 88 242 0.0 0.0 0.00 0.00 0.00 63 1018.9
20260902144947 88 225 0.0 0.0 0.00 0.00 0.00 68 1018.7
20260902144444 87 225 0.0 0.0 0.00 0.00 0.00 70 1018.7
20260902143938 86 222 0.0 0.0 0.00 0.00 0.00 71 1018.8
20260902143434 86 231 0.0 0.0 0.00 0.00 0.00 73 1018.7
20260902142928 85 236 0.0 0.0 0.00 0.00 0.00 76 1018.8
20260902142425 84 236 0.0 0.0 0.00 0.00 0.00 79 1018.6
20260902141920 83 236 0.0 0.0 0.00 0.00 0.00 83 1018.6
20260902141415 83 236 0.0 0.0 0.00 0.00 0.00 85 1018.5
20260902140914 82 236 0.0 0.0 0.00 0.00 0.00 86 1018.6
20260902140410 82 236 0.0 0.0 0.00 0.00 0.00 87 1018.7
20260902135910 81 236 0.0 0.0 0.00 0.00 0.00 88 1018.6
20260902135406 80 236 0.0 0.0 0.00 0.00 0.00 89 1018.7
20260902134904 80 236 0.0 0.0 0.00 0.00 0.00 89 1018.5
20260902134400 80 236 0.0 0.0 0.00 0.00 0.00 89 1018.6
20260902133854 79 236 0.0 0.0 0.00 0.00 0.00 89 1018.6
20260902133349 78 236 0.0 0.0 0.00 0.00 0.00 90 1018.5
20260902132844 78 235 0.0 0.0 0.00 0.00 0.00 91 1018.8
20260902132339 77 235 0.0 0.0 0.00 0.00 0.00 91 1018.7
20260902131835 77 235 0.0 0.0 0.00 0.00 0.00 91 1018.7
20260902131332 77 235 0.0 0.0 0.00 0.00 0.00 91 1018.5
20260902130830 76 235 0.0 0.0 0.00 0.00 0.00 91 1018.5
20260902130326 76 235 0.0 0.0 0.00 0.00 0.00 92 1018.6
20260902125821 75 235 0.0 0.0 0.00 0.00 0.00 92 1018.7
20260902125317 75 235 0.0 0.0 0.00 0.00 0.00 93 1018.5
20260902124813 74 235 0.0 0.0 0.00 0.00 0.00 93 1018.4
20260902124309 74 235 0.0 0.0 0.00 0.00 0.00 93 1018.3
20260902123804 73 236 0.0 0.0 0.00 0.00 0.00 93 1018.5
20260902123300 73 236 0.0 0.0 0.00 0.00 0.00 94 1018.4
20260902122759 73 236 0.0 0.0 0.00 0.00 0.00 94 1018.4
20260902122255 73 236 0.0 0.0 0.00 0.00 0.00 94 1018.4
20260902121755 73 236 0.0 0.0 0.00 0.00 0.00 94 1018.3
20260902121250 73 236 0.0 0.0 0.00 0.00 0.00 94 1018.2
20260902120745 72 237 0.0 0.0 0.00 0.00 0.00 94 1018.0
20260902120241 72 237 0.0 0.0 0.00 0.00 0.00 94 1018.2
20260902115736 72 237 0.0 0.0 0.00 0.00 0.00 94 1018.2
20260902115232 72 237 0.0 0.0 0.00 0.00 0.00 94 1018.4
20260902114728 72 237 0.0 0.0 0.00 0.00 0.00 94 1017.9
20260902114224 72 237 0.0 0.0 0.00 0.00 0.00 95 1018.1
20260902113723 71 237 0.0 0.0 0.00 0.00 0.00 95 1017.9
20260902113219 71 237 0.0 0.0 0.00 0.00 0.00 95 1017.8
20260902112713 72 237 0.0 0.0 0.00 0.00 0.00 95 1017.9
20260902112210 72 237 0.0 0.0 0.00 0.00 0.00 95 1017.8
20260902111705 71 237 0.0 0.0 0.00 0.00 0.00 95 1017.7
20260902111202 71 237 0.0 0.0 0.00 0.00 0.00 94 1017.5
20260902110657 72 237 0.0 0.0 0.00 0.00 0.00 95 1017.4
20260902110153 72 237 0.0 0.0 0.00 0.00 0.00 95 1017.8
20260902105652 72 237 0.0 0.0 0.00 0.00 0.00 95 1017.3
20260902105148 72 237 0.0 0.0 0.00 0.00 0.00 94 1017.5
20260902104643 72 237 0.0 0.0 0.00 0.00 0.00 94 1017.4
20260902104138 72 237 0.0 0.0 0.00 0.00 0.00 94 1017.2
20260902103637 72 237 0.0 0.0 0.00 0.00 0.00 94 1017.3
20260902103133 72 237 0.0 0.0 0.00 0.00 0.00 94 1017.3
20260902102629 71 237 0.0 0.0 0.00 0.00 0.00 95 1017.3
20260902102126 71 237 0.0 0.0 0.00 0.00 0.00 95 1017.3
20260902101621 71 237 0.0 0.0 0.00 0.00 0.00 95 1016.8
20260902101120 71 237 0.0 0.0 0.00 0.00 0.00 94 1017.0
20260902100615 72 237 0.0 0.0 0.00 0.00 0.00 94 1017.0
20260902100110 72 237 0.0 0.0 0.00 0.00 0.00 94 1016.9
20260902095609 72 237 0.0 0.0 0.00 0.00 0.00 94 1017.0
20260902095109 72 237 0.0 0.0 0.00 0.00 0.00 94 1016.9
20260902094604 72 237 0.0 0.0 0.00 0.00 0.00 94 1016.9
20260902094100 72 237 0.0 0.0 0.00 0.00 0.00 94 1017.0
20260902093600 72 237 0.0 0.0 0.00 0.00 0.00 94 1016.9
20260902093054 72 237 0.0 0.0 0.00 0.00 0.00 94 1016.8
20260902092549 72 238 0.0 0.0 0.00 0.00 0.00 93 1016.9
20260902092044 73 236 0.0 0.0 0.00 0.00 0.00 93 1016.7
20260902091534 73 236 0.0 0.0 0.00 0.00 0.00 93 1016.8
20260902091029 73 236 0.0 0.0 0.00 0.00 0.00 93 1016.7
20260902090526 73 236 0.0 0.0 0.00 0.00 0.00 93 1016.7
20260902090025 73 236 0.0 0.0 0.00 0.00 0.00 93 1016.6
20260902085524 73 236 0.0 0.0 0.00 0.00 0.00 93 1016.8
20260902085020 73 236 0.0 0.0 0.00 0.00 0.00 92 1016.7
20260902084516 73 236 0.0 0.0 0.00 0.00 0.00 91 1016.7
20260902084011 73 236 0.0 0.0 0.00 0.00 0.00 91 1016.6
20260902083507 73 236 0.0 0.0 0.00 0.00 0.00 91 1016.6
20260902083001 73 237 0.0 0.0 0.00 0.00 0.00 90 1016.3
20260902082457 72 237 0.0 0.0 0.00 0.00 0.00 92 1016.2
20260902081953 72 237 0.0 0.0 0.00 0.00 0.00 94 1016.3
20260902081450 72 240 0.0 0.0 0.00 0.00 0.00 94 1016.2
20260902080944 72 235 0.0 0.0 0.00 0.00 0.00 94 1016.4
20260902080440 73 235 0.0 0.0 0.00 0.00 0.00 94 1016.4
20260902075939 73 235 0.0 0.0 0.00 0.00 0.00 94 1016.1
20260902075436 73 235 0.0 0.0 0.00 0.00 0.00 94 1016.2
20260902074931 73 235 0.0 0.0 0.00 0.00 0.00 94 1016.3
20260902074426 73 236 0.0 0.0 0.00 0.00 0.00 94 1016.2
20260902073921 73 233 0.0 0.0 0.00 0.00 0.00 94 1016.5
20260902073417 73 233 0.0 0.0 0.00 0.00 0.00 93 1016.4
20260902072913 73 233 0.0 0.0 0.00 0.00 0.00 93 1016.3
20260902072409 73 233 0.0 0.0 0.00 0.00 0.00 93 1016.4
20260902071905 73 233 0.0 0.0 0.00 0.00 0.00 93 1016.3
20260902071404 74 233 0.0 0.0 0.00 0.00 0.00 92 1016.3
20260902070901 74 233 0.0 0.0 0.00 0.00 0.00 93 1016.3
20260902070356 74 233 0.0 0.0 0.00 0.00 0.00 93 1016.2
20260902065854 74 233 0.0 0.0 0.00 0.00 0.00 92 1016.3
20260902065350 74 233 0.0 0.0 0.00 0.00 0.00 92 1016.3
20260902064845 74 233 0.0 0.0 0.00 0.00 0.00 92 1016.2
20260902064341 74 233 0.0 0.0 0.00 0.00 0.00 92 1016.3
20260902063837 73 233 0.0 0.0 0.00 0.00 0.00 91 1016.2
20260902063336 74 233 0.0 0.0 0.00 0.00 0.00 91 1016.3
20260902062831 74 233 0.0 0.0 0.00 0.00 0.00 92 1016.4
20260902062325 74 233 0.0 0.0 0.00 0.00 0.00 92 1016.1
20260902061825 75 233 0.0 0.0 0.00 0.00 0.00 91 1016.4
20260902061320 75 233 0.0 0.0 0.00 0.00 0.00 90 1016.4
20260902060817 75 233 0.0 0.0 0.00 0.00 0.00 90 1016.4
20260902060312 75 233 0.0 0.0 0.00 0.00 0.00 89 1016.1
20260902055808 75 235 0.0 0.0 0.00 0.00 0.00 88 1016.4
20260902055306 75 237 0.0 0.0 0.00 0.00 0.00 89 1016.3
20260902054759 75 236 0.0 0.0 0.00 0.00 0.00 89 1016.4
20260902054254 74 234 0.0 0.0 0.00 0.00 0.00 89 1016.4
20260902053750 74 233 0.0 0.0 0.00 0.00 0.00 92 1016.3
20260902053249 74 233 0.0 0.0 0.00 0.00 0.00 92 1016.4
20260902052748 74 232 0.0 0.0 0.00 0.00 0.00 92 1016.6
20260902052244 74 232 0.0 0.0 0.00 0.00 0.00 91 1016.5
20260902051738 75 232 0.0 0.0 0.00 0.00 0.00 92 1016.5
20260902051232 75 232 0.0 0.0 0.00 0.00 0.00 92 1016.4
20260902050727 75 232 0.0 0.0 0.00 0.00 0.00 91 1016.4
20260902050223 75 232 0.0 0.0 0.00 0.00 0.00 90 1016.3
20260902045722 75 232 0.0 0.0 0.00 0.00 0.00 90 1016.4
20260902045219 76 232 0.0 0.0 0.00 0.00 0.00 89 1016.4
20260902044714 76 232 0.0 0.0 0.00 0.00 0.00 89 1016.3
20260902044210 75 232 0.0 0.0 0.00 0.00 0.00 89 1016.3
20260902043704 75 231 0.0 0.0 0.00 0.00 0.00 90 1016.4
20260902043200 75 231 0.0 0.0 0.00 0.00 0.00 90 1016.5
20260902042659 76 231 0.0 0.0 0.00 0.00 0.00 90 1016.3
20260902042154 76 231 0.0 0.0 0.00 0.00 0.00 90 1016.5
20260902041654 76 231 0.0 0.0 0.00 0.00 0.00 90 1016.5
20260902041149 76 231 0.0 0.0 0.00 0.00 0.00 90 1016.6
20260902040648 76 231 0.0 0.0 0.00 0.00 0.00 90 1016.5
20260902040144 76 231 0.0 0.0 0.00 0.00 0.00 91 1016.5
20260902035642 76 231 0.0 0.0 0.00 0.00 0.00 90 1016.5
20260902035137 76 231 0.0 0.0 0.00 0.00 0.00 90 1016.5
20260902034636 76 231 0.0 0.0 0.00 0.00 0.00 90 1016.6
20260902034131 77 231 0.0 0.0 0.00 0.00 0.00 89 1016.7
20260902033630 77 231 0.0 0.0 0.00 0.00 0.00 90 1016.5
20260902033125 77 231 0.0 0.0 0.00 0.00 0.00 90 1016.6
20260902032623 77 231 0.0 0.0 0.00 0.00 0.00 90 1016.6
20260902032118 77 231 0.0 0.0 0.00 0.00 0.00 90 1016.6
20260902031613 78 231 0.0 0.0 0.00 0.00 0.00 88 1016.7
20260902031109 78 231 0.0 0.0 0.00 0.00 0.00 88 1016.7
20260902030604 78 232 0.0 0.0 0.00 0.00 0.00 86 1016.6
20260902030104 78 229 0.0 0.0 0.00 0.00 0.00 88 1016.5
20260902025604 78 229 0.0 0.0 0.00 0.00 0.00 87 1016.5
20260902025059 78 229 0.0 0.0 0.00 0.00 0.00 85 1016.7
20260902024555 78 229 0.0 0.0 0.00 0.00 0.00 85 1016.7
20260902024054 78 229 0.0 0.0 0.00 0.00 0.00 86 1016.7
20260902023550 78 229 0.0 0.0 0.00 0.00 0.00 87 1016.7
20260902023045 78 229 0.0 0.0 0.00 0.00 0.00 88 1016.6
20260902022539 78 229 0.0 0.0 0.00 0.00 0.00 87 1016.6
20260902022035 78 229 0.0 0.0 0.00 0.00 0.00 88 1016.6
20260902021530 78 229 0.0 0.0 0.00 0.00 0.00 87 1016.3
20260902021025 79 229 0.0 0.0 0.00 0.00 0.00 87 1016.7
20260902020520 79 229 0.0 0.0 0.00 0.00 0.00 87 1016.4
20260902020016 79 227 0.0 0.0 0.00 0.00 0.00 87 1016.4
20260902015512 79 227 0.0 0.0 0.00 0.00 0.00 86 1016.5
20260902015007 79 227 0.0 0.0 0.00 0.00 0.00 86 1016.4
20260902014503 80 227 0.0 0.0 0.00 0.00 0.00 86 1016.4
20260902013959 80 227 0.0 0.0 0.00 0.00 0.00 85 1016.3
20260902013453 80 227 0.0 0.0 0.00 0.00 0.00 85 1016.3
20260902012948 80 227 0.0 0.0 0.00 0.00 0.00 85 1016.0
20260902012444 81 227 0.0 0.0 0.00 0.00 0.00 84 1016.2
20260902011939 81 227 0.0 0.0 0.00 0.00 0.00 83 1016.1
20260902011435 81 227 0.0 0.0 0.00 0.00 0.00 82 1016.2
20260902010934 81 227 0.0 0.0 0.00 0.00 0.00 82 1016.2
20260902010429 82 227 0.0 0.0 0.00 0.00 0.00 82 1016.1
20260902005928 82 226 0.0 0.0 0.00 0.00 0.00 81 1015.9
20260902005427 82 226 0.0 0.0 0.00 0.00 0.00 81 1015.9
20260902004924 82 226 0.0 0.0 0.00 0.00 0.00 81 1015.8
20260902004423 83 226 0.0 0.0 0.00 0.00 0.00 80 1015.9
20260902003919 83 226 0.0 0.0 0.00 0.00 0.00 81 1016.0
20260902003413 83 229 0.0 0.0 0.00 0.00 0.00 81 1016.0
20260902002908 84 229 0.0 0.0 0.00 0.00 0.00 79 1015.9
20260902002403 84 221 0.0 0.0 0.00 0.00 0.00 77 1016.0
20260902001857 85 221 0.0 0.0 0.00 0.00 0.00 77 1015.9
20260902001352 86 221 0.0 0.0 0.00 0.00 0.00 76 1015.9
20260902000847 86 221 0.0 0.0 0.00 0.00 0.00 73 1015.8
20260902000344 86 221 0.0 0.0 0.00 0.00 0.00 70 1015.7
20260901235837 87 221 0.0 0.0 0.00 0.00 0.00 68 1016.0
20260901235337 87 221 0.0 0.0 0.00 0.00 0.00 67 1015.8
20260901234832 87 221 0.0 0.0 0.00 0.00 0.00 66 1015.9
20260901234326 88 221 0.0 0.0 0.00 0.00 0.00 65 1016.0
20260901233822 88 221 0.0 0.0 0.00 0.00 0.00 63 1016.1
20260901233317 88 221 0.0 0.0 0.00 0.00 0.00 61 1016.1
20260901232813 89 221 0.0 0.0 0.00 0.00 0.00 60 1016.1
20260901232307 89 221 0.0 0.0 0.00 0.00 0.00 60 1016.1
20260901231804 89 221 0.0 0.0 0.00 0.00 0.00 60 1016.1
20260901231300 90 221 0.0 0.0 0.00 0.00 0.00 59 1015.9
20260901230756 91 221 0.0 0.0 0.00 0.00 0.00 56 1015.8
20260901230254 91 221 0.0 0.0 0.00 0.00 0.00 56 1016.0
20260901225750 91 221 0.0 0.0 0.00 0.00 0.00 57 1015.9
20260901225244 91 221 0.0 0.0 0.00 0.00 0.00 55 1016.1
20260901224741 92 222 0.0 0.0 0.00 0.00 0.00 53 1015.9
20260901224236 92 221 0.0 0.0 0.00 0.00 0.00 50 1016.0
20260901223732 92 221 0.0 0.0 0.00 0.00 0.00 49 1016.2
20260901223227 93 220 0.0 0.0 0.00 0.00 0.00 48 1015.9
20260901222723 93 221 0.0 0.0 0.00 0.00 0.00 48 1016.0
20260901222219 93 221 0.0 0.0 0.00 0.00 0.00 47 1015.8
20260901221715 93 221 0.0 0.0 0.00 0.00 0.00 46 1016.0
20260901221211 93 220 0.0 0.0 0.00 0.00 0.00 46 1015.9
20260901220709 93 220 0.0 0.0 0.00 0.00 0.00 48 1016.1
20260901220209 94 221 0.0 0.0 0.00 0.00 0.00 49 1015.9
20260901215708 94 221 0.0 0.0 0.00 0.00 0.00 48 1016.1
20260901215202 95 212 0.0 0.0 0.00 0.00 0.00 46 1016.0
20260901214700 95 213 0.0 0.0 0.00 0.00 0.00 47 1015.9
20260901214154 95 222 0.0 0.0 0.00 0.00 0.00 48 1016.1
20260901213649 96 223 0.0 0.0 0.00 0.00 0.00 45 1016.1
20260901213144 96 233 0.0 0.0 0.00 0.00 0.00 42 1016.1
20260901212643 95 216 0.0 0.0 0.00 0.00 0.00 46 1016.1
20260901212140 94 220 0.0 0.0 0.00 0.00 0.00 45 1016.0
20260901211634 95 225 0.0 0.0 0.00 0.00 0.00 46 1016.2
20260901211131 94 221 0.0 0.0 0.00 0.00 0.00 46 1016.1
20260901210626 93 232 0.0 0.0 0.00 0.00 0.00 47 1016.4
20260901210122 92 205 0.0 0.0 0.00 0.00 0.00 48 1016.2
20260901205617 92 204 0.0 0.0 0.00 0.00 0.00 50 1016.2
20260901205111 92 204 0.0 0.0 0.00 0.00 0.00 51 1016.2
20260901204607 92 204 0.0 0.0 0.00 0.00 0.00 51 1016.3
20260901204102 92 204 0.0 0.0 0.00 0.00 0.00 50 1016.5
20260901203602 92 205 0.0 0.0 0.00 0.00 0.00 51 1016.3
20260901203057 92 204 0.0 0.0 0.00 0.00 0.00 50 1016.5
20260901202556 91 204 0.0 0.0 0.00 0.00 0.00 52 1016.5